Location: Asbacherhof
(48.8543°N, 10.7903°E)
Time: 23:34:09
(UTC+00:00)

SME Rocket - Pass Details

Date: 26 May 2022
Orbit: 550 x 2650 km, 99.9° (Epoch: 26 June)

Event Time Altitude Azimuth Distance (km) Brightness Sun altitude
Exits shadow 01:24:37 23° 225° (SW) 1,333 4.2 -14.2°
Maximum altitude 01:26:18 31° 266° (W) 1,167 4.2 -14.1°
Drops below altitude 10° 01:30:43 10° 328° (NNW) 2,413 6.4 -13.7°
Sets 01:33:46 0° 339° (NNW) 3,632 7.5 -13.4°
